Location: Deuil
(48.9767°N, 2.3272°E)
Time: 13:02:27
(UTC+00:00)

COSMO-SKYMED 1 - Pass Details

Date: 24 October 2021
Orbit: 621 x 623 km, 97.9° (Epoch: 06 December)

Event Time Altitude Azimuth Distance (km) Brightness Sun altitude
Rises 17:49:48 0° 16° (NNE) 2,917 5.8 -11.5°
Reaches altitude 10° 17:52:02 10° 20° (NNE) 2,005 4.9 -11.8°
Maximum altitude 17:56:22 62° 101° (E) 705 2.5 -12.5°
Drops below altitude 10° 18:00:39 10° 183° (S) 1,988 5.2 -13.2°
Sets 18:02:51 0° 186° (S) 2,889 6.1 -13.6°
